DW0542 Weather Reports


time (UTC)temp
F
wind
direction
speed
knots
gust
knots
rain 1hr
in
rain 24hr
in
rain mn
in
humidity
%
barometer
mb
20200531081527 59 292 7.0 11.3 0.00 0.05 0.00 73 1011.8
20200531080035 59 264 3.5 8.7 0.00 0.05 0.00 71 1011.7
20200531074517 60 292 4.3 10.4 0.00 0.05 0.00 71 1011.8
20200531073011 60 293 7.0 12.2 0.00 0.05 0.00 69 1011.6
20200531071532 61 305 7.8 13.9 0.00 0.13 0.00 70 1011.5
20200531070011 61 299 8.7 13.9 0.00 0.13 0.00 68 1011.4
20200531064506 61 290 11.3 20.9 0.00 0.13 0.00 67 1011.3
20200531063154 61 288 10.4 15.6 0.00 0.13 0.00 70 1011.2
20200531063003 61 11 10.4 15.6 0.00 0.13 0.00 69 1011.2
20200531061635 62 303 7.0 11.3 0.00 0.13 0.00 70 1011.3
20200531060230 62 315 2.6 9.6 0.00 0.13 0.00 72 1011.3
20200531054645 62 297 0.0 7.0 0.00 0.13 0.00 72 1011.3
20200531053125 62 288 0.0 4.3 0.00 0.13 0.00 69 1011.3
20200531051614 63 296 0.0 7.0 0.00 0.13 0.00 69 1011.4
20200531050117 63 311 6.1 10.4 0.00 0.13 0.00 70 1011.3
20200531044627 63 281 6.1 8.7 0.00 0.13 0.00 67 1011.3
20200531043159 64 285 5.2 9.6 0.00 0.13 0.00 70 1011.3
20200531041637 64 308 6.1 11.3 0.00 0.13 0.13 69 1011.3
20200531040055 64 302 6.1 13.9 0.00 0.13 0.13 67 1011.2
20200531034542 65 306 6.1 11.3 0.00 0.13 0.13 69 1011.4
20200531033133 65 295 9.6 13.9 0.00 0.13 0.13 66 1011.3
20200531031618 65 263 8.7 15.6 0.00 0.13 0.13 68 1011.3
20200531030104 66 318 9.6 14.8 0.00 0.13 0.13 68 1011.1
20200531024606 66 300 7.0 12.2 0.00 0.13 0.13 68 1010.9
20200531023111 62 316 6.1 13.9 0.00 0.13 0.13 80 1010.9
20200531021612 60 291 0.0 0.0 0.00 0.13 0.13 74 1010.1
20200531020039 60 291 0.0 0.0 0.00 0.13 0.13 73 1010.0
20200531014555 61 291 0.0 0.0 0.00 0.13 0.13 71 1010.0
20200531013044 62 291 0.0 0.0 0.00 0.13 0.13 69 1010.0
20200531011551 63 291 0.0 0.0 0.00 0.13 0.13 67 1010.0
20200531010120 64 291 0.0 0.0 0.00 0.13 0.13 65 1010.0
20200531004546 65 291 0.0 0.0 0.00 0.13 0.13 63 1009.8
20200531003028 68 291 0.0 0.0 0.00 0.13 0.13 57 1009.7
20200531001542 72 291 0.0 0.0 0.00 0.13 0.13 49 1009.7
20200531000053 74 291 0.0 0.0 0.00 0.13 0.13 45 1009.4
20200530234537 74 291 0.0 0.9 0.00 0.13 0.13 44 1009.7
20200530233034 75 296 0.0 4.3 0.00 0.13 0.13 45 1009.7
20200530231518 75 284 1.7 8.7 0.00 0.13 0.13 44 1009.7
20200530230020 75 291 6.1 12.2 0.00 0.13 0.13 44 1009.6
20200530224521 76 275 2.6 9.6 0.00 0.13 0.13 49 1009.4
20200530223045 76 274 3.5 8.7 0.00 0.13 0.13 46 1009.3
20200530221518 75 295 4.3 11.3 0.00 0.13 0.13 47 1009.2
20200530220019 75 268 6.1 10.4 0.00 0.13 0.13 45 1009.2
20200530214536 75 286 3.5 9.6 0.00 0.13 0.13 48 1009.0
20200530213020 75 283 5.2 12.2 0.00 0.13 0.13 45 1009.0
20200530211526 75 300 0.0 12.2 0.00 0.13 0.13 52 1009.1
20200530210027 75 267 3.5 7.8 0.00 0.13 0.13 49 1009.2
20200530203008 75 230 1.7 12.2 0.00 0.13 0.13 49 1009.2
20200530201513 74 280 1.7 10.4 0.00 0.13 0.13 50 1009.2
20200530200017 74 263 0.0 7.8 0.00 0.13 0.13 52 1009.2
20200530193001 73 282 2.6 10.4 0.00 0.13 0.13 50 1009.4
20200530191702 73 311 5.2 11.3 0.00 0.13 0.13 57 1009.2
20200530190131 73 296 5.2 9.6 0.00 0.13 0.13 56 1009.3
20200530184618 73 305 1.7 7.8 0.00 0.13 0.13 54 1009.2
20200530183115 72 270 7.0 10.4 0.00 0.13 0.13 57 1009.5
20200530181601 72 307 7.8 13.0 0.00 0.13 0.13 57 1009.6
20200530180057 71 284 6.1 10.4 0.00 0.13 0.13 58 1009.5
20200530174633 71 301 7.0 12.2 0.00 0.13 0.13 56 1009.6
20200530173100 71 316 6.1 10.4 0.00 0.13 0.13 57 1009.7
20200530171652 71 272 6.1 9.6 0.00 0.13 0.13 60 1009.8
20200530170113 70 226 1.7 10.4 0.00 0.13 0.13 60 1010.0
20200530164606 70 274 1.7 8.7 0.00 0.13 0.13 59 1010.1
20200530163125 70 310 4.3 11.3 0.00 0.13 0.13 64 1010.1
20200530161629 69 251 1.7 10.4 0.00 0.13 0.13 63 1010.2
20200530160100 69 277 4.3 14.8 0.00 0.13 0.13 63 1010.5
20200530154638 69 260 5.2 13.0 0.00 0.13 0.13 64 1010.6
20200530153115 69 234 2.6 13.0 0.00 0.13 0.13 64 1010.8
20200530151642 69 290 5.2 12.2 0.00 0.13 0.13 65 1010.7
20200530150135 69 307 5.2 14.8 0.00 0.13 0.13 66 1010.5
20200530144608 69 284 3.5 12.2 0.00 0.13 0.13 68 1010.5
20200530143125 69 301 7.0 12.2 0.00 0.13 0.13 66 1010.4
20200530141617 69 305 7.8 14.8 0.00 0.13 0.13 67 1010.2
20200530140102 69 295 4.3 10.4 0.00 0.13 0.13 71 1010.2
20200530134548 69 272 7.0 12.2 0.00 0.13 0.13 70 1010.3
20200530133037 69 275 3.5 12.2 0.00 0.13 0.13 72 1010.4
20200530131706 69 279 6.1 14.8 0.00 0.13 0.13 75 1010.4
20200530130122 69 290 9.6 14.8 0.00 0.13 0.13 78 1010.2
20200530124534 69 288 0.9 11.3 0.00 0.13 0.13 84 1010.1
20200530123036 68 295 3.5 9.6 0.00 0.13 0.13 89 1010.1
20200530121604 67 246 2.6 6.1 0.00 0.13 0.13 92 1010.0
20200530120056 66 207 0.0 0.0 0.01 0.13 0.13 93 1009.9
20200530114549 66 207 0.0 4.3 0.01 0.13 0.13 93 1009.9
20200530113036 66 220 0.0 0.0 0.02 0.13 0.13 93 1009.9
20200530111548 66 226 0.0 3.5 0.02 0.14 0.13 93 1009.7
20200530110044 65 211 0.0 4.3 0.01 0.13 0.12 93 1009.6
20200530104552 65 205 0.0 0.9 0.01 0.13 0.12 93 1009.7
20200530103031 66 211 0.0 0.0 0.00 0.12 0.11 93 1009.7
20200530101545 66 205 0.0 6.1 0.00 0.12 0.11 93 1009.5
20200530100027 66 213 0.0 6.1 0.00 0.12 0.11 93 1009.3
20200530094542 66 196 0.0 2.6 0.00 0.12 0.11 93 1009.3
20200530093049 66 197 0.0 0.0 0.00 0.12 0.11 93 1009.2
20200530091531 66 160 0.0 0.0 0.00 0.12 0.11 93 1008.9
20200530090059 66 107 0.0 0.9 0.01 0.12 0.11 93 1008.9
20200530084544 66 68 0.0 0.9 0.02 0.12 0.11 93 1008.9
20200530083023 66 108 0.0 0.0 0.02 0.12 0.11 93 1009.2